Location: Darlington Observatory
(36.4817°N, 105.8156°W)
Time: 17:47:48
(UTC-07:00)

Daily predictions for brighter satellites

Satellite Brightness Start Highest point End
(mag) Time Altitude Azimuth Time Altitude Azimuth Time Altitude Azimuth
Meteor 2-21 4.4 17:31:30 10° N 17:37:35 72° E 17:43:35 10° SSE
METEOR-M 4.4 17:34:13 10° SE 17:39:19 48° ENE 17:44:26 10° N
Cosmos 1400 Rocket 2.9 17:39:37 10° S 17:43:35 62° E 17:47:38 10° NNE
Cosmos 2221 2.6 17:40:46 10° N 17:45:05 57° E 17:49:24 10° SSE
Cosmos 1943 3.6 17:40:42 10° SSW 17:46:17 66° WNW 17:51:54 10° NNE
Cosmos 1354 Rocket 4.3 17:42:28 10° NNW 17:47:47 78° WSW 17:53:05 10° S
Ariane Rocket 3.1 17:43:34 10° SSE 17:48:37 83° WSW 17:53:43 10° NNW
SL-8 Rocket 4.1 17:45:42 10° N 17:51:43 52° E 17:57:45 10° SSE
Cosmos 2218 Rocket 4.2 17:48:55 10° N 17:54:47 45° E 18:00:36 10° SSE
Cosmos 1408 Rocket 4.4 17:51:39 10° SSE 17:55:20 28° E 17:59:02 10° NNE
Meteor 2-10 3.9 17:51:29 10° N 17:56:31 67° E 18:01:36 10° SSE
SPOT 3 Rocket 4.1 17:54:08 10° SE 17:58:45 35° ENE 18:03:24 10° N
ALOS 2.5 17:56:19 10° SE 18:00:44 45° ENE 18:05:11 10° N
EO 1 Del DPAF 3.8 17:57:37 10° NNE 18:01:12 36° E 18:04:44 10° SSE
COSMO-SKYMED 1 2.5 17:59:30 10° NNE 18:03:50 73° ESE 18:08:09 10° S
Cosmos 2151 4.4 18:07:23 10° SE 18:10:15 18° E 18:11:34 16° ENE
Cosmos 1703 4.4 18:07:37 10° SE 18:10:46 23° E 18:13:13 14° NE
Landsat 4 3.6 18:08:14 10° NNE 18:11:59 76° ESE 18:15:41 10° S
Cosmos 1076 Rocket 3.8 18:10:59 10° SSW 18:15:19 72° W 18:19:42 10° N
Cosmos 1626 2.4 18:13:30 10° SSE 18:17:01 43° E 18:20:33 10° NNE
Cosmos 1743 Rocket 4.4 18:17:48 10° SSE 18:21:29 27° E 18:23:41 18° NE
Meteor 2-8 Rocket 4.4 18:15:55 10° S 18:22:02 80° E 18:28:13 10° N
CZ-4 R/B 3.1 18:19:59 10° SSW 18:23:53 38° W 18:27:52 10° NNW
SL-14 R/B 4.1 18:21:54 10° SSW 18:25:47 52° W 18:29:40 10° N
Cosmos 1300 3.0 18:23:27 10° NNW 18:27:15 69° W 18:31:02 10° S
Cosmos 2369 Rocket 3.6 18:23:11 10° NW 18:28:30 43° WSW 18:33:49 10° S
Cosmos 1328 Rocket 4.0 18:26:43 10° N 18:30:47 36° E 18:34:46 10° SSE
Cosmos 2366 rocket 3.9 18:26:59 10° N 18:33:16 84° E 18:39:25 10° S
ERS-2 2.1 18:30:43 10° SSE 18:34:19 59° ENE 18:37:57 10° N
Cosmos 1656 Rocket 3.6 18:32:47 10° NNW 18:38:12 59° ENE 18:43:38 10° SE
Cosmos 2098 Rocket 3.9 18:33:20 10° N 18:38:30 52° E 18:44:52 10° SSE
Cosmos 968 Rocket 4.1 18:34:37 10° NNW 18:39:40 57° WSW 18:44:38 10° S
Cosmos 1766 Rocket 3.8 18:35:46 10° SSW 18:40:04 68° W 18:44:23 10° N
Cosmos 371 Rocket 3.9 18:36:50 10° SSE 18:41:07 33° E 18:41:50 31° E
NOAA 12 4.2 18:36:27 10° S 18:41:40 80° WSW 18:46:56 10° NNW
Cosmos 1943 Rocket 3.2 18:37:58 10° NNW 18:43:20 49° WSW 18:48:37 10° S
Nadezhda 3 Rocket 4.0 18:41:16 10° S 18:47:24 58° E 18:53:38 10° NNE
Cosmos 44 3.5 18:43:54 10° SW 18:48:07 57° WNW 18:51:06 19° NNE
ATLAS 2AS CENTAUR R/B 4.1 18:42:04 10° NW 18:49:17 43° WSW 18:55:54 10° S
Cosmos 1315 Rocket 4.1 18:46:00 10° SSW 18:49:42 39° WNW 18:53:24 10° N
Cosmos 1346 Rocket 2.5 18:51:45 10° N 18:55:40 81° E 18:59:32 10° S
ASTRO E2 3.7 18:52:26 10° SW 18:56:04 34° S 18:56:43 32° SSE
Cosmos 1570 Rocket 4.3 18:54:49 10° S 18:59:48 43° ESE 19:00:02 43° E
Meteor 1-27 4.1 18:54:54 10° N 19:00:38 80° E 19:06:25 10° S
Meteor 1-11 4.4 18:55:07 10° SSW 19:00:40 73° W 19:06:19 10° N
OAO 3 Rocket 3.2 18:59:08 10° W 19:03:49 72° S 19:04:51 52° ESE
Tiangong 1 3.5 19:01:51 10° NW 19:02:11 12° NW 19:02:11 12° NW
SL-24 R/B - RUBIN 2 3.4 19:01:34 10° NNW 19:06:02 88° NE 19:07:15 47° SSE
H-2A R/B 3.0 19:02:59 10° S 19:06:44 68° W 19:10:33 10° NNW
SEDSat Delta rocket 4.4 19:03:34 10° WSW 19:09:51 47° S 19:11:35 38° SE
NOSS 3-4 (A) 3.7 19:05:03 10° NNW 19:12:13 81° ENE 19:19:31 12° SE
NOSS 3-4 (C) 3.7 19:05:09 10° NNW 19:12:19 80° ENE 19:19:23 13° SE
COSMOS 2406 3.1 19:07:24 10° SSW 19:13:09 87° WNW 19:15:55 32° NNE
Cosmos 44 Rocket 4.2 19:09:35 10° SW 19:14:02 42° NW 19:16:17 25° N
FengYun 1-2 T 4.4 19:10:44 10° S 19:16:22 76° WSW 19:22:00 10° NNW
Thor Agena Rocket 3.5 19:19:44 32° N 19:22:13 85° WNW 19:27:26 10° SSW
Lacrosse 5 3.8 19:22:04 10° S 19:23:31 17° SSE 19:23:31 17° SSE
Cosmos 332 Rocket 4.3 19:30:10 10° SSW 19:34:58 58° WNW 19:35:41 52° NW
Cosmos 2239 Rocket 4.3 19:29:53 10° N 19:36:02 87° E 19:42:12 10° S
Cosmos 2058 4.5 19:34:48 10° SW 19:38:34 34° WNW 19:39:50 28° NW
Cosmos 909 Rocket 4.1 19:45:23 10° NNW 19:51:12 69° NNW 19:51:12 69° NNW
